Wind_Speed
5 5 6 6 6 6 6 6 5 5 4 4 4 4 3 3 3 3 3 4 4 4 4 4 4 5 5 6 6 6 6 6 7 7 8 8 8 9 9 9 9 9 9
7 6 6 6 6 6 6 6 6 5 5 5 5 4 4 4 4 4 5 5 5 5 5 5 5 5 6 6 7 6 6 7 7 7 7 8 8 8 8 9 9 9 9
8 8 7 7 7 7 7 7 7 6 5 6 6 6 5 5 5 5 5 6 6 6 6 6 6 5 6 6 7 7 7 7 7 7 7 7 8 8 9 9 9 10 10
8 8 8 8 8 8 7 7 7 6 6 6 6 6 6 6 6 6 5 6 6 6 6 6 6 6 6 6 7 7 7 8 8 9 9 9 10 10 10 10 10 11 11
9 9 9 9 9 9 8 8 8 8 8 7 7 6 7 7 7 7 6 6 6 7 7 7 7 7 8 8 8 8 8 9 9 10 10 10 10 10 10 10 11 12 12
9 9 9 9 10 9 9 8 8 8 8 8 8 8 8 8 8 8 8 8 8 8 8 8 8 9 9 9 10 10 9 10 10 11 11 11 11 11 11 11 12 12 12
10 10 10 10 10 10 9 9 8 9 8 9 9 9 9 10 10 9 10 9 9 9 9 9 9 10 10 10 11 11 11 11 11 11 12 12 12 12 13 13 14 14 13
11 11 11 11 11 10 10 9 9 9 9 10 10 11 10 11 10 10 11 11 11 11 11 11 11 11 11 11 12 12 12 12 12 13 13 13 13 13 14 14 14 14 14
11 11 11 11 12 11 11 10 10 10 10 10 11 11 11 11 11 11 12 12 12 12 13 13 13 13 13 13 13 13 13 13 14 14 14 15 15 15 15 15 15 15 15
12 12 12 12 12 13 12 11 11 11 12 12 12 12 12 12 12 12 13 13 13 13 14 14 14 14 14 14 14 14 15 14 15 15 16 16 16 17 17 17 16 17 17
13 13 14 14 14 13 13 13 13 13 13 13 13 13 13 13 13 13 14 14 14 15 15 15 15 15 14 14 15 15 15 15 16 16 17 17 18 18 18 18 18 18 18
14 14 14 14 14 14 14 14 14 14 14 14 14 14 15 15 14 14 14 14 15 16 15 15 15 15 15 16 16 16 17 17 17 17 17 18 18 18 18 19 19 19 19
15 16 16 15 15 15 14 14 15 15 15 15 15 15 15 15 15 15 15 15 15 15 15 15 15 16 16 17 17 17 17 18 18 18 18 18 18 18 18 19 19 20 20
16 17 16 15 15 15 15 15 15 15 15 15 15 15 14 15 15 16 16 16 16 16 16 15 15 16 17 17 18 18 19 19 19 19 19 19 19 19 19 19 20 21 21
17 17 16 16 16 15 16 16 15 15 16 16 15 15 16 16 16 16 17 17 17 17 17 17 16 16 17 17 18 19 19 19 20 20 19 19 19 20 21 21 21 21 22
17 17 17 17 17 16 16 16 16 16 16 16 16 16 16 17 17 17 17 17 17 18 18 18 17 17 17 18 19 19 19 19 19 19 20 20 21 21 22 22 23 22 23
17 18 18 18 17 17 17 17 17 17 17 17 17 17 17 18 18 18 18 18 18 18 18 18 18 19 19 18 18 19 19 19 19 20 20 21 22 22 23 23 23 24 24
18 18 18 18 18 18 18 18 19 19 19 18 18 18 18 19 19 19 19 19 19 19 19 19 18 19 19 19 19 19 20 20 20 21 21 22 22 23 23 24 24 24 25
19 19 19 19 19 20 20 20 20 20 20 20 19 19 20 20 19 19 19 19 19 19 20 20 20 20 20 21 21 21 21 21 21 21 22 23 23 24 24 25 26 26 26
20 21 21 21 21 21 22 22 22 21 22 21 21 21 20 20 20 20 20 20 20 20 20 20 20 20 21 21 21 22 21 21 22 23 23 24 24 25 26 26 27 27 27
22 22 22 22 22 23 23 23 23 23 22 22 22 22 22 22 21 21 21 21 21 21 21 21 21 21 21 21 22 22 23 23 23 24 25 25 25 26 26 27 27 28 28
23 23 24 24 24 24 24 24 24 24 23 23 23 23 23 22 22 22 22 22 22 22 22 22 22 22 22 23 24 24 25 25 25 26 26 26 27 27 27 27 27 27 28
25 25 25 25 24 25 25 24 24 24 23 24 24 24 24 24 23 23 23 24 24 24 23 23 23 23 24 24 24 25 26 26 27 27 27 27 28 28 28 28 28 27 28
26 26 25 25 24 25 25 25 24 24 24 25 25 25 25 25 24 24 24 24 25 25 25 24 25 24 24 25 25 26 27 27 28 28 28 28 28 28 29 29 29 29 29
26 26 26 26 25 25 25 25 25 25 25 25 24 25 25 25 25 25 25 25 26 26 26 26 26 26 26 27 28 29 29 29 29 29 29 29 29 29 30 30 31 31 31
26 26 26 26 26 26 26 26 26 26 26 25 25 25 26 26 26 26 26 26 27 27 28 28 29 29 29 29 30 31 31 31 31 31 31 31 31 32 32 32 31 32 32
Wind_Direction
321 324 329 333 337 336 333 332 326 322 319 315 310 308 296 295 295 294 290 287 278 273 272 277 281 276 275 278 276 273 276 271 267 264 265 267 269 271 276 277 278 280 280
308 313 317 322 325 326 328 325 324 319 307 298 296 295 294 289 288 285 279 275 273 275 278 282 282 274 273 273 274 272 275 278 275 269 269 275 273 272 276 279 279 281 282
304 307 312 316 316 316 319 321 320 313 301 295 292 290 286 285 286 285 278 271 272 274 277 281 279 273 270 270 272 271 272 277 280 276 277 279 277 278 281 281 280 280 283
299 301 304 307 307 308 311 313 313 307 299 292 289 286 284 285 288 289 283 278 278 278 278 279 277 275 272 273 277 278 275 275 279 281 281 281 280 279 280 279 282 282 281
298 299 300 301 302 302 304 306 306 301 297 291 286 283 282 282 284 284 283 282 282 280 277 276 276 277 278 277 278 277 274 274 277 278 280 282 281 278 277 279 282 285 284
294 298 299 299 300 299 301 304 303 301 296 291 285 282 280 281 281 280 279 279 280 282 278 276 278 278 277 278 279 279 277 279 279 278 278 279 282 281 280 281 282 284 285
295 296 299 299 298 297 299 300 302 301 298 293 289 285 282 281 282 279 279 276 275 276 278 278 280 280 278 277 277 279 278 278 279 281 281 281 282 282 281 282 282 282 284
297 299 299 298 296 294 293 292 295 296 294 292 289 287 282 282 281 277 275 272 271 272 274 279 281 281 278 277 277 278 278 277 278 280 281 283 284 284 282 281 282 281 280
298 297 296 294 293 291 290 290 291 294 294 292 290 287 282 282 280 278 275 272 271 272 274 278 280 281 280 277 277 278 279 278 278 279 280 281 283 283 284 282 282 282 282
297 294 290 290 290 291 289 289 289 292 292 291 289 287 284 284 281 278 277 274 272 273 275 278 281 282 282 278 276 278 280 278 277 276 278 280 281 281 281 280 280 281 282
297 295 292 289 288 289 288 286 285 286 288 289 288 285 284 285 284 281 278 277 275 274 275 277 277 278 277 277 276 278 280 281 279 277 277 278 280 280 280 279 279 280 281
294 294 293 291 288 287 289 289 287 285 286 287 286 284 284 284 283 282 281 281 279 276 274 275 275 276 276 277 277 278 279 280 280 278 278 278 280 279 279 279 277 278 278
291 290 290 291 292 291 291 290 288 287 288 288 288 286 283 281 282 281 281 282 280 279 278 277 277 276 277 278 279 278 279 280 281 280 278 278 279 280 280 280 278 277 278
287 288 289 290 293 293 292 289 288 289 290 289 288 286 283 281 281 281 280 279 278 278 278 281 281 280 281 281 282 282 283 283 282 280 279 279 278 278 278 279 279 278 279
285 286 286 287 288 290 291 292 289 291 291 290 288 286 284 282 281 281 280 277 277 277 278 281 282 284 285 286 286 286 286 286 284 281 279 279 279 278 279 279 281 281 279
285 284 284 285 286 287 287 288 288 290 290 290 289 287 286 285 283 281 280 278 276 276 279 280 280 284 286 286 286 287 287 288 287 285 281 280 280 280 280 279 280 281 280
284 284 284 285 286 285 285 286 286 287 289 290 289 287 285 284 284 282 279 278 277 276 277 278 280 282 285 287 287 288 286 286 287 286 283 281 281 280 281 280 280 280 279
283 283 284 284 283 283 283 283 284 285 287 288 288 286 284 282 282 282 280 278 277 276 277 278 281 282 284 285 287 287 287 286 286 285 285 284 283 281 281 280 280 280 279
282 281 281 282 282 282 282 283 285 286 286 286 286 285 284 283 281 281 279 277 277 277 279 279 281 282 283 284 285 285 286 286 287 287 286 285 285 283 282 281 281 282 281
281 281 281 282 282 283 283 283 284 285 286 286 286 285 284 282 280 279 277 277 277 278 280 281 281 283 283 285 287 287 287 288 287 287 288 287 287 285 283 283 283 283 282
281 282 283 283 284 283 284 284 284 284 284 284 285 284 283 281 279 279 277 276 277 279 280 281 282 283 284 286 288 288 288 289 289 288 288 288 289 288 286 285 284 283 282
281 283 283 283 283 284 284 284 284 284 283 283 283 283 281 280 279 278 277 276 277 279 281 282 283 282 284 285 286 288 288 288 289 289 289 288 288 287 286 286 286 284 282
281 282 283 284 285 285 284 282 283 283 283 283 282 281 279 279 277 276 275 275 277 279 280 280 281 282 283 284 285 287 287 288 288 290 290 288 288 287 286 286 287 284 282
281 282 283 284 285 285 285 283 283 282 283 282 281 280 279 279 278 277 277 277 278 278 279 280 280 280 281 284 286 287 287 288 288 289 290 289 287 286 286 287 286 284 284
280 281 281 282 284 285 285 284 283 283 283 284 282 280 278 277 278 279 279 280 281 279 279 279 280 281 282 283 285 286 287 288 288 289 289 288 288 288 287 287 285 284 284
279 281 281 282 284 285 285 283 282 282 282 284 284 282 280 278 278 278 279 280 281 281 281 282 283 283 285 286 286 288 289 288 289 288 289 288 287 288 288 287 287 285 284
Height
5860 5859 5858 5857 5856 5854 5853 5852 5851 5850 5849 5849 5848 5848 5847 5847 5847 5846 5846 5846 5846 5846 5846 5846 5846 5846 5846 5846 5846 5846 5846 5846 5846 5846 5846 5846 5846 5846 5846 5846 5845 5845 5845
5859 5858 5857 5856 5855 5854 5853 5851 5850 5849 5849 5848 5848 5847 5847 5846 5846 5846 5845 5845 5845 5845 5845 5845 5844 5844 5844 5844 5844 5844 5844 5844 5844 5844 5844 5844 5844 5844 5844 5844 5843 5843 5843
5858 5857 5856 5855 5854 5853 5852 5850 5849 5848 5848 5847 5846 5846 5846 5845 5845 5844 5844 5844 5843 5843 5843 5843 5843 5843 5843 5842 5842 5842 5842 5842 5842 5842 5842 5842 5841 5841 5841 5841 5841 5841 5840
5857 5855 5854 5853 5852 5851 5850 5849 5848 5847 5846 5845 5845 5845 5844 5844 5843 5843 5842 5842 5842 5841 5841 5841 5841 5841 5841 5841 5840 5840 5840 5840 5840 5840 5839 5839 5839 5839 5839 5839 5838 5838 5837
5855 5854 5853 5852 5851 5849 5849 5848 5846 5845 5845 5844 5844 5843 5843 5842 5842 5841 5841 5840 5840 5840 5839 5839 5839 5839 5839 5838 5838 5838 5838 5838 5837 5837 5837 5836 5836 5836 5836 5836 5836 5835 5835
5853 5852 5851 5849 5848 5847 5846 5845 5844 5843 5843 5842 5842 5841 5841 5840 5840 5839 5839 5838 5838 5838 5837 5837 5837 5836 5836 5836 5836 5836 5835 5835 5835 5835 5834 5834 5834 5833 5833 5833 5833 5832 5832
5851 5849 5848 5847 5846 5845 5844 5843 5842 5841 5840 5840 5839 5839 5838 5838 5837 5837 5836 5836 5836 5835 5835 5834 5834 5834 5833 5833 5833 5832 5832 5832 5832 5832 5831 5831 5830 5830 5830 5830 5829 5829 5828
5848 5847 5846 5844 5843 5842 5841 5840 5840 5839 5838 5837 5836 5836 5835 5835 5834 5834 5833 5833 5833 5832 5832 5831 5831 5831 5830 5830 5829 5829 5829 5829 5828 5828 5828 5827 5827 5826 5826 5826 5826 5825 5825
5846 5844 5843 5842 5841 5840 5839 5838 5837 5836 5835 5834 5833 5833 5832 5832 5831 5830 5830 5829 5829 5829 5828 5828 5827 5827 5826 5826 5825 5825 5825 5824 5824 5824 5823 5823 5823 5822 5822 5822 5821 5822 5821
5843 5841 5840 5839 5838 5837 5836 5835 5834 5833 5832 5831 5830 5829 5829 5828 5827 5827 5826 5825 5825 5825 5824 5824 5823 5823 5822 5821 5821 5821 5820 5820 5819 5819 5819 5819 5818 5818 5817 5817 5817 5816 5816
5840 5838 5837 5835 5834 5833 5832 5832 5831 5830 5829 5828 5827 5826 5825 5824 5824 5823 5822 5821 5821 5820 5820 5819 5819 5818 5818 5817 5817 5816 5816 5815 5815 5814 5814 5814 5813 5813 5812 5812 5812 5811 5811
5836 5835 5833 5832 5831 5830 5829 5828 5827 5826 5825 5824 5823 5822 5821 5820 5820 5819 5818 5817 5816 5815 5815 5814 5814 5814 5813 5813 5812 5812 5811 5810 5810 5809 5809 5808 5808 5807 5807 5807 5806 5806 5806
5832 5831 5830 5829 5828 5826 5825 5824 5823 5822 5821 5820 5819 5818 5817 5816 5815 5815 5814 5813 5812 5811 5810 5810 5809 5809 5808 5808 5807 5806 5806 5805 5804 5803 5803 5803 5802 5802 5801 5801 5801 5800 5800
5828 5827 5826 5825 5824 5822 5821 5820 5819 5818 5817 5816 5815 5813 5812 5812 5811 5810 5809 5808 5807 5806 5806 5805 5804 5804 5803 5803 5802 5801 5800 5799 5798 5798 5797 5797 5796 5796 5795 5795 5795 5794 5794
5824 5823 5822 5821 5820 5819 5817 5816 5815 5813 5812 5811 5810 5809 5808 5807 5806 5805 5804 5803 5802 5802 5802 5801 5800 5799 5798 5797 5796 5795 5795 5794 5793 5792 5791 5791 5790 5790 5789 5789 5788 5788 5788
5820 5818 5817 5816 5815 5814 5813 5812 5810 5809 5808 5806 5805 5804 5802 5801 5800 5800 5799 5798 5798 5797 5797 5796 5795 5794 5793 5792 5791 5790 5789 5788 5787 5786 5785 5784 5784 5783 5783 5782 5782 5781 5781
5815 5814 5813 5812 5810 5809 5808 5807 5806 5804 5803 5801 5800 5798 5797 5796 5795 5794 5794 5793 5793 5792 5792 5791 5791 5790 5788 5787 5786 5784 5783 5782 5781 5780 5779 5778 5777 5777 5776 5775 5775 5774 5773
5810 5809 5808 5806 5805 5804 5803 5802 5800 5799 5798 5796 5794 5793 5791 5790 5789 5789 5788 5788 5787 5787 5787 5786 5785 5784 5783 5782 5780 5779 5777 5776 5775 5774 5773 5772 5771 5770 5769 5768 5768 5767 5766
5805 5803 5802 5801 5800 5798 5797 5796 5795 5793 5791 5790 5788 5787 5786 5784 5784 5783 5782 5782 5782 5782 5781 5780 5779 5778 5777 5776 5775 5773 5772 5770 5769 5768 5767 5766 5764 5763 5762 5761 5760 5759 5758
5799 5797 5796 5795 5794 5792 5791 5790 5788 5787 5785 5783 5782 5781 5780 5778 5778 5777 5777 5777 5776 5776 5775 5774 5774 5772 5771 5770 5769 5767 5766 5765 5763 5761 5760 5759 5757 5756 5754 5753 5752 5751 5750
5792 5791 5790 5789 5787 5786 5784 5783 5782 5780 5779 5777 5775 5774 5773 5772 5771 5771 5771 5770 5770 5770 5769 5768 5767 5766 5765 5764 5762 5761 5760 5758 5757 5755 5753 5752 5750 5748 5747 5745 5744 5743 5741
5786 5784 5783 5782 5780 5779 5777 5776 5774 5773 5771 5770 5768 5767 5766 5765 5765 5764 5764 5764 5763 5763 5762 5762 5761 5760 5759 5757 5756 5754 5753 5751 5750 5748 5746 5744 5742 5740 5739 5737 5736 5734 5733
5779 5777 5776 5774 5773 5772 5770 5769 5767 5766 5764 5763 5761 5759 5758 5758 5757 5757 5757 5757 5756 5756 5755 5755 5754 5753 5752 5750 5749 5747 5746 5744 5742 5740 5738 5736 5734 5732 5731 5729 5727 5726 5725
5771 5770 5768 5767 5766 5764 5763 5761 5760 5758 5757 5755 5753 5751 5750 5749 5750 5749 5749 5749 5749 5748 5748 5747 5746 5745 5744 5743 5742 5740 5738 5736 5734 5732 5730 5728 5726 5724 5722 5721 5719 5718 5716
5764 5762 5761 5760 5758 5757 5755 5753 5752 5750 5749 5747 5745 5743 5742 5742 5742 5742 5742 5741 5741 5740 5740 5739 5738 5737 5737 5735 5734 5732 5730 5728 5725 5723 5721 5719 5717 5715 5714 5712 5710 5708 5707
5756 5754 5753 5752 5751 5749 5747 5745 5744 5743 5741 5740 5738 5737 5735 5735 5734 5734 5734 5733 5733 5732 5732 5731 5730 5729 5728 5727 5725 5723 5721 5719 5717 5714 5713 5710 5708 5706 5704 5702 5700 5699 5697